$DATE,$TIME,DM0600B,DM0602B,DM0604B,DM0614B,DM0616B,DM0618B,DM0624B,DM0628B,DM0630B,DM0634B,DM0606B,DM0608B,DM0610B
09/02/94,00:00:00,0,0,0,0,3,2,6,59,25,0,26,26,24
09/02/94,00:05:00,0,0,0,0,3,2,6,60,25,0,36,38,33
09/02/94,00:10:00,0,0,0,0,3,2,6,59,25,0,24,24,27
09/02/94,00:15:00,0,0,0,0,3,2,6,59,25,0,36,37,24
09/02/94,00:20:00,0,0,0,0,3,2,6,59,25,0,24,24,33
09/02/94,00:25:00,0,0,0,0,3,2,6,59,25,0,33,33,26
09/02/94,00:30:00,0,0,0,0,3,2,5,59,25,0,26,28,24
09/02/94,00:35:00,0,0,0,0,3,2,5,60,25,0,29,29,34
09/02/94,00:40:00,0,0,0,0,3,2,6,59,25,0,32,35,23
09/02/94,00:45:00,0,0,0,0,3,2,6,59,25,0,26,27,29
09/02/94,00:50:00,0,0,0,0,3,2,6,59,25,0,36,38,32
09/02/94,00:55:00,0,0,0,0,3,2,6,59,25,0,23,24,23
09/02/94,01:00:00,0,0,0,0,3,2,6,59,25,0,35,36,30
09/02/94,01:05:00,0,0,0,0,3,2,6,59,25,0,24,24,29
09/02/94,01:10:00,0,0,0,0,3,2,6,59,25,0,33,34,21
09/02/94,01:15:00,0,0,0,0,3,2,6,59,25,0,28,28,31
09/02/94,01:20:00,0,0,0,0,4,3,7,59,25,0,28,29,28
09/02/94,01:25:00,0,0,0,0,3,2,6,59,25,0,31,33,22
09/02/94,01:30:00,0,0,0,0,3,2,6,59,25,0,27,27,34
09/02/94,01:35:00,0,0,0,0,3,2,6,59,25,0,35,37,24
09/02/94,01:40:00,0,0,0,0,3,2,6,59,25,0,23,24,26
09/02/94,01:45:00,0,0,0,0,3,2,6,59,25,0,35,37,33
09/02/94,01:50:00,0,0,0,0,4,3,7,60,25,0,24,23,23
09/02/94,01:55:00,0,0,0,0,4,3,7,59,25,0,33,34,29
09/02/94,02:00:00,0,0,0,0,3,2,6,59,25,0,26,26,30
09/02/94,02:05:00,0,0,0,0,3,2,6,59,25,0,29,31,22
09/02/94,02:10:00,0,0,0,0,3,2,6,59,25,0,31,32,29
09/02/94,02:15:00,0,0,0,0,3,2,6,59,25,0,26,27,29
09/02/94,02:20:00,0,0,0,0,3,2,6,59,25,0,35,37,21
09/02/94,02:25:00,0,0,0,0,3,2,6,59,25,0,24,25,34
09/02/94,02:30:00,0,0,0,0,3,2,5,59,25,0,36,38,26
09/02/94,02:35:00,0,0,0,0,3,2,6,59,25,0,23,23,23
09/02/94,02:40:00,0,0,0,0,3,2,6,59,25,0,33,33,34
09/02/94,02:45:00,0,0,0,0,3,2,5,60,25,0,26,27,24
09/02/94,02:50:00,0,0,0,0,3,2,6,59,25,0,30,31,27
09/02/94,02:55:00,0,0,0,0,2,2,5,59,25,0,32,34,31
09/02/94,03:00:00,0,0,0,0,2,2,5,59,25,0,26,26,23
09/02/94,03:05:00,0,0,0,0,2,2,4,59,25,0,35,38,27
09/02/94,03:10:00,0,0,0,0,2,2,4,59,25,0,24,25,31
09/02/94,03:15:00,0,0,0,0,2,2,4,59,25,0,36,37,21
09/02/94,03:20:00,0,0,0,0,2,2,4,59,25,0,23,23,30
09/02/94,03:25:00,0,0,0,0,2,1,4,59,25,0,33,33,30
09/02/94,03:30:00,0,0,0,0,1,1,3,59,25,0,28,29,21
09/02/94,03:35:00,0,0,0,0,1,1,3,59,25,0,29,29,34
09/02/94,03:40:00,0,0,0,0,1,1,2,59,25,0,33,37,27
09/02/94,03:45:00,0,0,0,0,0,1,2,59,25,0,26,25,22
09/02/94,03:50:00,0,0,0,0,0,1,2,59,25,0,37,38,34
09/02/94,03:55:00,0,0,0,0,0,0,1,60,25,0,23,23,26
09/02/94,04:00:00,0,0,0,0,0,0,1,59,25,0,35,35,27
09/02/94,04:05:00,0,0,0,0,0,0,1,59,25,0,25,26,33
09/02/94,04:10:00,0,0,0,0,0,0,1,60,33,0,32,31,26
09/02/94,04:15:00,0,0,0,0,0,0,0,58,25,0,31,35,29
09/02/94,04:20:00,0,0,0,0,0,0,0,59,25,0,28,28,33
09/02/94,04:25:00,0,0,0,0,0,0,0,59,25,0,35,39,23
09/02/94,04:30:00,0,0,0,0,0,0,0,60,25,0,25,24,33
09/02/94,04:35:00,0,0,0,0,0,0,0,59,25,0,37,37,31
09/02/94,04:40:00,0,0,0,0,0,0,0,58,25,0,25,26,23
09/02/94,04:45:00,0,0,0,0,0,0,0,58,33,0,35,33,36
09/02/94,04:50:00,0,0,0,0,0,0,0,60,25,0,27,33,28
09/02/94,04:55:00,0,0,0,0,0,0,0,60,25,0,32,29,26
09/02/94,05:00:00,0,0,0,0,0,0,0,58,25,0,33,40,35
09/02/94,05:05:00,0,0,0,0,0,0,0,60,25,0,27,25,27
09/02/94,05:10:00,0,0,0,0,0,0,0,60,25,0,38,38,27
09/02/94,05:15:00,0,0,0,0,0,0,0,58,25,0,25,26,34
09/02/94,05:20:00,0,0,0,0,0,0,0,60,25,0,36,34,24
09/02/94,05:25:00,0,0,0,0,0,0,0,60,25,0,26,31,29
09/02/94,05:30:00,0,0,0,0,0,0,0,58,25,0,32,30,35
09/02/94,05:35:00,0,0,0,0,0,0,0,60,25,0,31,38,23
09/02/94,05:40:00,0,0,0,0,0,0,0,60,25,0,29,27,34
09/02/94,05:45:00,0,0,0,0,0,0,0,60,25,0,37,40,30
09/02/94,05:50:00,0,0,0,0,0,0,0,60,25,0,24,24,23
09/02/94,05:55:00,0,0,0,0,0,0,0,60,25,0,37,35,35
09/02/94,06:00:00,0,0,0,0,0,0,0,60,25,0,24,29,28
09/02/94,06:05:00,0,0,0,0,0,0,0,60,25,0,34,31,26
09/02/94,06:10:00,0,0,0,0,0,0,0,60,25,0,29,38,35
09/02/94,06:15:00,0,0,0,0,0,0,0,60,25,0,30,27,28
09/02/94,06:20:00,0,0,0,0,0,0,0,60,25,0,35,39,25
09/02/94,06:25:00,0,0,0,0,0,0,0,60,25,0,27,25,36
09/02/94,06:30:00,0,0,0,0,0,0,0,59,25,0,38,38,24
09/02/94,06:35:00,0,0,0,0,0,0,0,59,25,0,24,25,29
09/02/94,06:40:00,0,0,0,0,0,0,0,60,25,0,35,34,34
09/02/94,06:45:00,0,0,0,0,0,0,0,60,25,0,26,31,23
09/02/94,06:50:00,0,0,0,0,0,0,0,60,25,0,31,30,34
09/02/94,06:55:00,0,0,0,0,0,0,0,60,25,0,33,39,30
09/02/94,07:00:00,0,0,0,0,0,0,0,59,25,0,28,26,24
09/02/94,07:05:00,0,0,0,0,0,0,0,59,25,0,37,40,33
09/02/94,07:10:00,0,0,0,0,0,0,0,60,25,0,25,24,30
09/02/94,07:15:00,0,0,0,0,0,0,0,60,25,0,37,36,24
09/02/94,07:20:00,0,0,0,0,0,0,0,60,25,0,25,26,35
09/02/94,07:25:00,0,0,0,0,0,0,0,59,25,0,33,33,29
09/02/94,07:30:00,0,0,0,0,0,0,0,59,25,0,31,33,24
09/02/94,07:35:00,0,0,0,0,0,0,0,60,25,0,30,30,36
09/02/94,07:40:00,0,0,0,0,0,0,0,59,25,0,35,38,26
09/02/94,07:45:00,0,0,0,0,0,0,0,60,25,0,27,26,26
09/02/94,07:50:00,0,0,0,0,0,0,0,60,25,0,38,39,35
09/02/94,07:55:00,0,0,0,0,0,0,0,59,25,0,24,24,25
09/02/94,08:00:00,0,0,0,0,0,0,0,59,25,0,36,36,31
09/02/94,08:05:00,0,0,0,0,0,0,0,60,25,0,26,28,32
09/02/94,08:10:00,0,0,0,0,0,0,0,60,25,0,33,31,23
09/02/94,08:15:00,0,0,0,0,0,0,0,60,25,0,30,36,33
09/02/94,08:20:00,0,0,0,0,0,0,0,59,25,0,29,27,30
09/02/94,08:25:00,0,0,0,0,0,0,0,59,25,0,37,39,23
09/02/94,08:30:00,0,0,0,0,0,0,0,60,25,0,25,24,36
09/02/94,08:35:00,0,0,0,0,0,0,0,60,25,0,38,37,27
09/02/94,08:40:00,7,0,4,0,0,0,0,60,25,0,24,25,24
09/02/94,08:45:00,0,0,0,0,0,0,0,59,25,0,33,33,35
09/02/94,08:50:00,1,0,0,0,0,0,0,59,25,0,28,32,24
09/02/94,08:55:00,0,0,0,0,0,0,0,59,25,0,30,29,29
09/02/94,09:00:00,2,0,10,0,0,0,0,59,25,0,33,38,32
09/02/94,09:05:00,0,0,0,0,0,0,0,60,25,0,26,25,24
09/02/94,09:10:00,3,0,0,0,0,0,0,59,25,0,37,38,29
09/02/94,09:15:00,0,0,0,0,0,0,0,59,25,0,24,23,32
09/02/94,09:20:00,3,0,0,0,0,0,0,59,25,0,36,35,22
09/02/94,09:25:00,0,0,0,0,0,0,0,60,25,0,24,27,31
09/02/94,09:30:00,0,0,3,0,0,0,0,60,25,0,32,31,31
09/02/94,09:35:00,4,0,15,0,0,0,0,59,25,0,29,33,20
09/02/94,09:40:00,6,0,6,0,0,0,0,59,25,0,28,28,32
09/02/94,09:45:00,0,0,0,0,0,0,0,59,25,0,34,36,26
09/02/94,09:50:00,4,0,6,0,0,0,0,59,38,0,25,25,22
09/02/94,09:55:00,2,0,0,0,0,0,0,59,25,0,36,38,33
09/02/94,10:00:00,5,0,3,0,0,0,0,60,25,0,23,23,26
09/02/94,10:05:00,10,0,9,0,0,0,0,59,25,0,34,34,24
09/02/94,10:10:00,0,0,0,0,0,0,0,59,25,0,23,25,32
09/02/94,10:15:00,3,0,0,0,0,0,0,59,25,0,32,31,24
09/02/94,10:20:00,0,0,0,0,0,0,0,59,25,0,27,31,24
09/02/94,10:25:00,7,0,1,0,0,0,0,59,25,0,29,28,32
09/02/94,10:30:00,0,0,0,0,0,0,0,59,25,0,31,36,20
09/02/94,10:35:00,0,0,0,0,0,0,0,59,25,0,26,25,32
09/02/94,10:40:00,8,0,13,0,0,0,0,59,25,0,35,37,28
09/02/94,10:45:00,0,0,8,0,0,0,0,59,25,0,23,23,21
09/02/94,10:50:00,8,0,17,0,0,0,0,59,25,0,34,35,28
09/02/94,10:55:00,0,0,7,0,0,0,0,59,25,0,22,22,26
09/02/94,11:00:00,16,0,20,0,0,0,0,59,25,0,30,30,20
09/02/94,11:05:00,6,0,8,0,0,0,0,59,25,0,23,24,27
09/02/94,11:10:00,31,0,26,0,0,0,0,59,25,0,25,26,17
09/02/94,11:15:00,0,7,0,0,0,0,0,59,25,0,24,26,27
09/02/94,11:20:00,24,25,25,0,0,0,0,59,25,0,23,24,22
09/02/94,11:25:00,0,0,0,0,0,0,0,59,25,0,29,31,19
09/02/94,11:30:00,1,0,16,0,0,0,0,59,25,0,21,21,29
09/02/94,11:35:00,21,3,4,0,0,0,0,59,25,0,31,33,17
09/02/94,11:40:00,0,0,0,0,0,0,0,59,25,0,20,21,26
09/02/94,11:45:00,0,0,0,0,0,0,0,59,25,0,29,31,24
09/02/94,11:50:00,0,2,0,0,0,0,0,59,25,0,25,26,21
09/02/94,11:55:00,0,0,0,0,0,0,0,59,25,0,27,29,31
09/02/94,12:00:00,9,12,13,0,0,0,0,59,25,0,28,30,17
09/02/94,12:05:00,1,3,20,0,0,0,0,59,25,0,24,25,31
09/02/94,12:10:00,1,3,10,0,0,0,0,59,25,0,31,34,18
09/02/94,12:15:00,0,0,0,0,0,0,0,59,25,0,21,23,27
09/02/94,12:20:00,0,0,0,0,0,0,0,59,25,0,32,35,27
09/02/94,12:25:00,0,0,3,0,0,0,0,59,25,0,23,22,20
09/02/94,12:30:00,0,0,1,0,0,0,0,59,25,0,30,32,32
09/02/94,12:35:00,16,20,19,0,0,0,0,59,25,0,26,26,20
09/02/94,12:40:00,29,24,31,0,0,0,0,59,25,0,24,26,25
09/02/94,12:45:00,0,0,0,0,0,0,0,59,25,0,27,29,18
09/02/94,12:50:00,0,0,0,0,0,0,0,59,25,0,22,24,25
09/02/94,12:55:00,0,0,0,0,0,0,0,59,25,0,32,34,23
09/02/94,13:00:00,3,2,5,0,0,0,0,59,25,0,21,22,20
09/02/94,13:05:00,0,0,5,0,0,0,0,59,25,0,31,33,31
09/02/94,13:10:00,0,0,0,0,0,0,0,59,25,0,23,23,21
09/02/94,13:15:00,0,0,0,0,0,0,0,59,25,0,29,31,27
09/02/94,13:20:00,0,0,1,0,0,0,0,59,25,0,29,31,28
09/02/94,13:25:00,0,1,2,0,0,0,0,59,25,0,26,27,20
09/02/94,13:30:00,0,2,6,0,0,0,0,59,25,0,32,35,29
09/02/94,13:35:00,7,3,0,0,0,0,0,59,25,0,23,24,26
09/02/94,13:40:00,5,4,1,0,0,0,0,59,25,0,35,36,22
09/02/94,13:45:00,0,12,11,0,0,0,0,59,25,0,22,22,31
09/02/94,13:50:00,0,0,0,0,0,0,0,59,25,0,31,32,20
09/02/94,13:55:00,1,2,12,0,0,0,0,59,25,0,26,26,25
09/02/94,14:00:00,2,1,0,0,0,0,0,59,25,0,26,27,26
09/02/94,14:05:00,0,0,0,0,0,0,0,59,25,0,28,31,20
09/02/94,14:10:00,10,6,0,0,0,0,0,59,25,0,25,25,30
09/02/94,14:15:00,0,1,0,0,0,0,0,59,25,0,31,33,21
09/02/94,14:20:00,0,0,2,0,0,0,0,59,25,0,21,22,22
09/02/94,14:25:00,2,5,7,0,0,0,0,59,25,0,32,34,29
09/02/94,14:30:00,0,0,10,0,0,0,0,59,25,0,21,22,19
09/02/94,14:35:00,0,1,9,0,0,0,0,59,25,0,30,32,26
09/02/94,14:40:00,0,0,1,0,0,0,0,59,25,0,24,24,23
09/02/94,14:45:00,0,0,0,0,0,0,0,59,25,0,29,29,23
09/02/94,14:50:00,0,0,0,0,0,0,0,59,25,0,28,32,31
09/02/94,14:55:00,0,0,0,0,0,0,0,59,25,0,26,26,25
09/02/94,15:00:00,0,0,0,0,0,0,0,59,25,0,35,37,26
09/02/94,15:05:00,0,0,0,0,0,0,0,59,25,0,24,24,32
09/02/94,15:10:00,0,0,0,0,0,0,0,59,25,0,36,37,22
09/02/94,15:15:00,0,0,0,0,0,0,0,60,25,0,23,24,29
09/02/94,15:20:00,0,0,0,0,0,0,0,59,25,0,33,33,31
09/02/94,15:25:00,0,0,0,0,0,0,0,59,25,0,27,30,21
09/02/94,15:30:00,0,0,0,0,0,0,0,59,25,0,30,29,35
09/02/94,15:35:00,0,0,0,0,0,0,0,59,25,0,32,37,26
09/02/94,15:40:00,0,0,0,0,0,0,0,60,25,0,27,26,26
09/02/94,15:45:00,0,0,0,0,0,0,0,59,25,0,37,39,35
09/02/94,15:50:00,0,0,0,0,0,0,0,59,25,0,24,23,25
09/02/94,15:55:00,0,0,0,0,0,0,0,59,25,0,36,35,31
09/02/94,16:00:00,0,0,0,0,0,0,0,60,25,0,24,28,31
09/02/94,16:05:00,0,0,0,0,0,0,0,60,25,0,33,32,23
09/02/94,16:10:00,0,0,0,0,0,0,0,60,25,0,29,36,32
09/02/94,16:15:00,0,0,0,0,0,0,0,59,25,0,28,27,30
09/02/94,16:20:00,0,0,0,0,0,0,0,59,25,0,35,39,22
09/02/94,16:25:00,2,0,4,0,0,0,0,59,25,0,26,25,35
09/02/94,16:30:00,4,0,4,0,0,0,0,59,25,0,36,37,27
09/02/94,16:35:00,0,0,12,0,0,0,0,60,25,0,23,24,23
09/02/94,16:40:00,18,0,34,0,0,0,0,59,25,0,34,32,32
09/02/94,16:45:00,10,0,21,0,0,0,0,59,25,0,22,26,22
09/02/94,16:50:00,19,10,15,0,0,0,0,59,25,0,29,29,21
09/02/94,16:55:00,36,35,37,0,0,0,0,58,33,0,21,24,14
09/02/94,17:00:00,22,9,18,0,0,0,0,59,25,0,15,16,19
09/02/94,17:05:00,21,12,26,0,0,0,0,58,24,0,22,26,17
09/02/94,17:10:00,35,27,30,0,0,0,0,58,24,0,17,18,12
09/02/94,17:15:00,20,16,34,0,0,0,0,58,24,0,13,13,10
09/02/94,17:20:00,23,15,27,0,0,0,0,58,24,0,11,11,9
09/02/94,17:25:00,19,15,29,0,0,0,0,58,24,0,10,15,8
09/02/94,17:30:00,24,34,32,0,0,0,0,57,24,0,9,19,8
09/02/94,17:35:00,34,37,50,0,0,0,0,57,24,0,9,14,8
09/02/94,17:40:00,35,30,46,0,0,0,0,57,24,0,8,11,7
09/02/94,17:45:00,23,29,31,0,0,0,0,57,24,0,8,10,7
09/02/94,17:50:00,24,12,37,0,0,0,0,57,24,0,8,9,7
09/02/94,17:55:00,27,18,31,0,0,0,0,57,24,0,8,8,7
09/02/94,18:00:00,28,23,30,0,0,0,0,57,24,0,8,8,7
09/02/94,18:05:00,29,20,39,0,0,0,0,57,24,0,8,7,7
09/02/94,18:10:00,20,19,29,0,0,0,0,57,24,0,7,7,8
09/02/94,18:15:00,22,13,26,0,0,0,0,57,24,0,8,11,7
09/02/94,18:20:00,18,14,22,0,0,0,0,58,24,0,8,21,7
09/02/94,18:25:00,12,7,16,0,0,0,0,58,24,0,8,15,7
09/02/94,18:30:00,10,7,6,0,0,0,0,58,24,0,17,13,8
09/02/94,18:35:00,8,5,11,0,0,0,0,58,24,0,22,25,21
09/02/94,18:40:00,5,3,5,0,0,0,0,58,24,0,15,20,14
09/02/94,18:45:00,7,4,10,0,0,0,0,58,24,0,19,20,15
09/02/94,18:50:00,8,5,28,0,0,0,0,58,25,0,25,29,20
09/02/94,18:55:00,12,9,23,0,0,0,0,58,24,0,17,17,13
09/02/94,19:00:00,7,6,8,0,0,0,0,58,25,0,19,22,15
09/02/94,19:05:00,4,4,9,0,0,0,0,58,24,0,25,26,19
09/02/94,19:10:00,5,2,4,0,0,0,0,59,25,0,17,18,13
09/02/94,19:15:00,0,0,0,0,0,0,0,58,25,0,23,29,26
09/02/94,19:20:00,0,0,0,0,0,0,0,59,25,0,25,24,17
09/02/94,19:25:00,0,0,0,0,0,0,0,59,25,0,23,27,29
09/02/94,19:30:00,0,0,0,0,0,0,0,59,25,0,31,34,18
09/02/94,19:35:00,0,0,0,0,0,0,0,59,25,0,22,24,30
09/02/94,19:40:00,0,0,0,0,0,0,0,59,25,0,34,36,23
09/02/94,19:45:00,0,0,0,0,0,0,0,59,25,0,22,22,22
09/02/94,19:50:00,0,0,0,0,0,0,0,59,25,0,31,31,32
09/02/94,19:55:00,0,0,0,0,0,0,0,59,25,0,25,28,21
09/02/94,20:00:00,0,0,0,0,0,0,0,59,25,0,27,27,33
09/02/94,20:05:00,0,0,0,0,0,0,0,59,25,0,30,36,28
09/02/94,20:10:00,0,0,0,0,0,0,0,59,25,0,26,25,22
09/02/94,20:15:00,0,0,0,0,0,0,0,59,25,0,35,37,33
09/02/94,20:20:00,0,0,0,0,0,0,0,59,25,0,24,23,27
09/02/94,20:25:00,0,0,0,0,0,0,0,60,25,0,36,35,23
09/02/94,20:30:00,0,0,0,0,0,0,0,59,25,0,24,29,34
09/02/94,20:35:00,0,0,0,0,0,0,0,60,25,0,32,29,26
09/02/94,20:40:00,0,0,0,0,0,0,0,59,25,0,29,37,25
09/02/94,20:45:00,0,0,0,0,0,0,0,60,25,0,30,25,34
09/02/94,20:50:00,0,0,0,0,0,0,0,59,25,0,35,38,22
09/02/94,20:55:00,0,0,0,0,0,0,0,60,25,0,26,23,30
09/02/94,21:00:00,0,0,0,0,0,0,0,60,25,0,38,34,32
09/02/94,21:05:00,0,0,0,0,0,0,0,60,25,0,23,29,22
09/02/94,21:10:00,0,0,0,0,0,0,0,60,25,0,34,30,35
09/02/94,21:15:00,0,0,0,0,0,0,0,59,25,0,27,37,28
09/02/94,21:20:00,0,0,0,0,0,0,0,60,25,0,31,25,24
09/02/94,21:25:00,0,0,0,0,0,0,0,60,25,0,34,39,35
09/02/94,21:30:00,0,0,0,0,0,0,0,60,25,0,26,23,26
09/02/94,21:35:00,0,0,0,0,0,0,0,59,25,0,37,35,27
09/02/94,21:40:00,0,0,0,0,0,0,0,60,25,0,24,28,34
09/02/94,21:45:00,0,0,0,0,0,0,0,60,25,0,35,30,25
09/02/94,21:50:00,0,0,0,0,0,0,0,60,25,0,26,38,30
09/02/94,21:55:00,0,0,0,0,0,0,0,60,25,0,31,26,33
09/02/94,22:00:00,0,0,0,0,0,0,0,59,25,0,33,39,22
09/02/94,22:05:00,0,0,0,0,0,0,0,60,25,0,27,23,35
09/02/94,22:10:00,0,0,0,0,0,0,0,60,25,0,38,35,29
09/02/94,22:15:00,0,0,0,0,0,0,0,60,25,0,24,28,22
09/02/94,22:20:00,0,0,0,0,0,0,0,59,25,0,36,31,36
09/02/94,22:25:00,0,0,0,0,0,0,0,60,25,0,26,38,26
09/02/94,22:30:00,0,0,0,0,0,0,0,60,25,0,32,26,28
09/02/94,22:35:00,0,0,0,0,0,0,0,60,25,0,32,39,35
09/02/94,22:40:00,0,0,0,0,0,0,0,60,25,0,27,23,24
09/02/94,22:45:00,0,0,0,0,0,0,1,60,25,0,38,35,32
09/02/94,22:50:00,0,0,0,0,0,0,1,60,25,0,24,31,31
09/02/94,22:55:00,0,0,0,0,0,0,1,60,25,0,36,30,23
09/02/94,23:00:00,0,0,0,0,0,0,1,60,25,0,25,38,33
09/02/94,23:05:00,0,0,0,0,0,0,1,60,25,0,32,25,30
09/02/94,23:10:00,0,0,0,0,0,1,2,60,25,0,32,38,23
09/02/94,23:15:00,0,0,0,0,1,1,3,60,25,0,29,24,36
09/02/94,23:20:00,0,0,0,0,3,2,6,60,25,0,36,34,26
09/02/94,23:25:00,0,0,0,0,4,3,8,60,25,0,25,29,25
09/02/94,23:30:00,0,0,0,0,3,2,6,59,25,0,37,30,35
09/02/94,23:35:00,0,0,0,0,2,2,5,59,25,0,23,36,24
09/02/94,23:40:00,0,0,0,0,1,1,3,60,25,0,34,25,29
09/02/94,23:45:00,0,0,2,0,1,1,3,60,25,0,27,38,31
09/02/94,23:50:00,0,0,0,0,1,2,3,59,25,0,30,23,22
09/02/94,23:55:00,0,0,0,0,1,1,3,59,25,0,33,34,30
09/03/94,00:00:00,0,0,0,0,0,1,3,60,25,0,26,26,31
